contact:dominique.lefevre@mio.osupytheas.fr, maurice.libes@osupytheas.fr, didier.mallarino@osupytheas.fr
Project:EMSO http://www.emso-fr.org/EMSO-France
Depth: 2436.0 m
Title:EMSO Ligure Ouest : Data MII capteur CSTAR
DateTime,Latitude,Longitude,Instrument_Serial,Reference_Counts,Signal_Counts,Corrected_Signal_raw_counts,Calculated_Beam_c_inverse_meters,Internal_thermistor_counts
DateTime,Latitude,Longitude,Instrument_Serial,Reference_Counts,Signal_Counts,Corrected_Signal_raw_counts,Calculated_Beam_c_inverse_meters,Internal_thermistor_counts
2022-09-11T00:01:34,42.805,6.029,CST-1368DR,4597,5105,11823,01.113,551
2022-09-11T00:04:35,42.805,6.029,CST-1368DR,4597,5105,11822,01.113,551
2022-09-11T00:07:37,42.805,6.029,CST-1368DR,4597,5105,11822,01.113,551
2022-09-11T00:10:38,42.805,6.029,CST-1368DR,4597,5104,11821,01.114,551
2022-09-11T00:13:40,42.805,6.029,CST-1368DR,4597,5105,11824,01.113,551
2022-09-11T00:16:42,42.805,6.029,CST-1368DR,4597,5102,11816,01.115,551
2022-09-11T00:19:43,42.805,6.029,CST-1368DR,4597,5104,11820,01.114,551
2022-09-11T00:22:45,42.805,6.029,CST-1368DR,4597,5101,11813,01.116,551
2022-09-11T00:25:46,42.805,6.029,CST-1368DR,4597,5104,11820,01.114,551
2022-09-11T00:28:48,42.805,6.029,CST-1368DR,4597,5099,11809,01.118,551
2022-09-11T00:31:49,42.805,6.029,CST-1368DR,4597,5103,11819,01.114,551
2022-09-11T00:34:51,42.805,6.029,CST-1368DR,4597,5103,11819,01.114,551
2022-09-11T00:37:53,42.805,6.029,CST-1368DR,4597,5104,11821,01.114,551
2022-09-11T00:40:54,42.805,6.029,CST-1368DR,4597,5105,11823,01.113,551
2022-09-11T00:43:56,42.805,6.029,CST-1368DR,4597,5107,11827,01.112,551
2022-09-11T00:46:57,42.805,6.029,CST-1368DR,4597,5104,11821,01.114,551
2022-09-11T00:49:59,42.805,6.029,CST-1368DR,4597,5105,11822,01.113,551
2022-09-11T00:53:01,42.805,6.029,CST-1368DR,4597,5104,11821,01.114,551
2022-09-11T00:56:02,42.805,6.029,CST-1368DR,4597,5102,11816,01.115,551
2022-09-11T00:59:04,42.805,6.029,CST-1368DR,4597,5107,11828,01.111,551
2022-09-11T01:02:05,42.805,6.029,CST-1368DR,4597,5105,11822,01.113,551
2022-09-11T01:05:07,42.805,6.029,CST-1368DR,4597,5102,11815,01.116,551
2022-09-11T01:08:08,42.805,6.029,CST-1368DR,4597,5104,11820,01.114,551
2022-09-11T01:11:10,42.805,6.029,CST-1368DR,4597,5104,11820,01.114,551
2022-09-11T01:14:12,42.805,6.029,CST-1368DR,4597,5104,11820,01.114,551
2022-09-11T01:17:13,42.805,6.029,CST-1368DR,4597,5097,11805,01.119,551
2022-09-11T01:20:15,42.805,6.029,CST-1368DR,4597,5100,11812,01.117,551
2022-09-11T01:23:16,42.805,6.029,CST-1368DR,4597,5093,11794,01.123,551
2022-09-11T01:26:18,42.805,6.029,CST-1368DR,4597,5098,11808,01.118,551
2022-09-11T01:29:19,42.805,6.029,CST-1368DR,4597,5097,11805,01.119,551
2022-09-11T01:32:21,42.805,6.029,CST-1368DR,4597,5099,11808,01.118,551
2022-09-11T01:35:23,42.805,6.029,CST-1368DR,4597,5097,11805,01.119,551
2022-09-11T01:38:24,42.805,6.029,CST-1368DR,4597,5094,11798,01.121,551
2022-09-11T01:41:26,42.805,6.029,CST-1368DR,4597,5096,11802,01.120,551
2022-09-11T01:44:27,42.805,6.029,CST-1368DR,4597,5094,11797,01.122,551
2022-09-11T01:47:29,42.805,6.029,CST-1368DR,4597,5093,11796,01.122,551
2022-09-11T01:50:31,42.805,6.029,CST-1368DR,4597,5092,11793,01.123,551
2022-09-11T01:53:32,42.805,6.029,CST-1368DR,4597,5093,11795,01.122,551
2022-09-11T01:56:34,42.805,6.029,CST-1368DR,4597,5093,11795,01.122,551
2022-09-11T01:59:35,42.805,6.029,CST-1368DR,4597,5093,11795,01.122,551
2022-09-11T02:02:37,42.805,6.029,CST-1368DR,4597,5090,11789,01.125,551
2022-09-11T02:05:38,42.805,6.029,CST-1368DR,4597,5091,11791,01.124,551
2022-09-11T02:08:40,42.805,6.029,CST-1368DR,4597,5090,11788,01.125,551
2022-09-11T02:11:42,42.805,6.029,CST-1368DR,4597,5090,11788,01.125,551
2022-09-11T02:14:43,42.805,6.029,CST-1368DR,4597,5090,11788,01.125,551
2022-09-11T02:17:45,42.805,6.029,CST-1368DR,4597,5091,11791,01.124,551
2022-09-11T02:20:46,42.805,6.029,CST-1368DR,4597,5092,11793,01.123,551
2022-09-11T02:23:48,42.805,6.029,CST-1368DR,4597,5091,11792,01.123,551
2022-09-11T02:26:49,42.805,6.029,CST-1368DR,4597,5091,11791,01.124,551
2022-09-11T02:29:51,42.805,6.029,CST-1368DR,4597,5090,11788,01.125,551
2022-09-11T02:32:53,42.805,6.029,CST-1368DR,4597,5087,11781,01.127,551
2022-09-11T02:35:54,42.805,6.029,CST-1368DR,4597,5091,11790,01.124,551
2022-09-11T02:38:56,42.805,6.029,CST-1368DR,4597,5090,11789,01.125,551
2022-09-11T02:41:57,42.805,6.029,CST-1368DR,4597,5089,11787,01.125,551
2022-09-11T02:44:59,42.805,6.029,CST-1368DR,4597,5090,11788,01.125,551
2022-09-11T02:48:01,42.805,6.029,CST-1368DR,4597,5092,11793,01.123,551
2022-09-11T02:51:02,42.805,6.029,CST-1368DR,4597,5091,11790,01.124,551
2022-09-11T02:54:04,42.805,6.029,CST-1368DR,4597,5091,11790,01.124,551
2022-09-11T02:57:05,42.805,6.029,CST-1368DR,4597,5088,11785,01.126,551
2022-09-11T03:00:07,42.805,6.029,CST-1368DR,4597,5088,11784,01.126,551
2022-09-11T03:03:08,42.805,6.029,CST-1368DR,4597,5091,11791,01.124,551
2022-09-11T03:06:10,42.805,6.029,CST-1368DR,4597,5092,11793,01.123,551
2022-09-11T03:09:12,42.805,6.029,CST-1368DR,4597,5088,11783,01.127,551
2022-09-11T03:12:13,42.805,6.029,CST-1368DR,4597,5088,11784,01.126,551
2022-09-11T03:15:15,42.805,6.029,CST-1368DR,4597,5089,11787,01.125,551
2022-09-11T03:18:16,42.805,6.029,CST-1368DR,4597,5089,11785,01.126,551
2022-09-11T03:21:18,42.805,6.029,CST-1368DR,4597,5089,11787,01.125,551
2022-09-11T03:24:20,42.805,6.029,CST-1368DR,4597,5087,11781,01.127,551
2022-09-11T03:27:21,42.805,6.029,CST-1368DR,4596,5090,11790,01.124,551
2022-09-11T03:30:23,42.805,6.029,CST-1368DR,4597,5092,11792,01.123,551
2022-09-11T03:33:24,42.805,6.029,CST-1368DR,4597,5092,11792,01.123,551
2022-09-11T03:36:26,42.805,6.029,CST-1368DR,4596,5094,11800,01.121,551
2022-09-11T03:39:27,42.805,6.029,CST-1368DR,4596,5093,11798,01.121,551
2022-09-11T03:42:29,42.805,6.029,CST-1368DR,4597,5094,11797,01.122,551
2022-09-11T03:45:31,42.805,6.029,CST-1368DR,4596,5091,11793,01.123,551
2022-09-11T03:48:32,42.805,6.029,CST-1368DR,4597,5090,11789,01.125,551
2022-09-11T03:51:34,42.805,6.029,CST-1368DR,4596,5087,11785,01.126,551
2022-09-11T03:54:35,42.805,6.029,CST-1368DR,4596,5089,11789,01.125,551
2022-09-11T03:57:37,42.805,6.029,CST-1368DR,4596,5088,11787,01.125,551
2022-09-11T04:00:38,42.805,6.029,CST-1368DR,4596,5088,11787,01.125,551
2022-09-11T04:03:40,42.805,6.029,CST-1368DR,4596,5088,11787,01.125,551
2022-09-11T04:06:42,42.805,6.029,CST-1368DR,4596,5088,11787,01.125,551
2022-09-11T04:09:43,42.805,6.029,CST-1368DR,4596,5091,11792,01.123,551
2022-09-11T04:12:45,42.805,6.029,CST-1368DR,4596,5088,11787,01.125,551
2022-09-11T04:15:46,42.805,6.029,CST-1368DR,4596,5088,11786,01.126,551
2022-09-11T04:18:48,42.805,6.029,CST-1368DR,4596,5088,11786,01.126,551
2022-09-11T04:21:50,42.805,6.029,CST-1368DR,4596,5087,11785,01.126,551
2022-09-11T04:24:51,42.805,6.029,CST-1368DR,4596,5088,11787,01.125,551
2022-09-11T04:27:53,42.805,6.029,CST-1368DR,4596,5088,11787,01.125,551
2022-09-11T04:30:54,42.805,6.029,CST-1368DR,4596,5088,11787,01.125,551
2022-09-11T04:33:56,42.805,6.029,CST-1368DR,4596,5088,11785,01.126,551
2022-09-11T04:36:57,42.805,6.029,CST-1368DR,4596,5092,11795,01.122,551
2022-09-11T04:39:59,42.805,6.029,CST-1368DR,4596,5088,11785,01.126,551
2022-09-11T04:43:01,42.805,6.029,CST-1368DR,4596,5089,11789,01.125,551
2022-09-11T04:46:02,42.805,6.029,CST-1368DR,4596,5091,11794,01.123,551
2022-09-11T04:49:04,42.805,6.029,CST-1368DR,4596,5089,11789,01.125,551
2022-09-11T04:52:05,42.805,6.029,CST-1368DR,4596,5088,11787,01.125,551
2022-09-11T04:55:11,42.805,6.029,CST-1368DR,4596,5087,11785,01.126,5
2022-09-11T05:00:06,42.805,6.029,CST-1368DR,4596,5090,11790,01.124,551
2022-09-11T05:03:08,42.805,6.029,CST-1368DR,4596,5086,11782,01.127,551
2022-09-11T05:06:09,42.805,6.029,CST-1368DR,4596,5087,11785,01.126,551
2022-09-11T05:09:11,42.805,6.029,CST-1368DR,4596,5090,11791,01.124,551
2022-09-11T05:12:13,42.805,6.029,CST-1368DR,4596,5093,11797,01.122,551
2022-09-11T05:15:14,42.805,6.029,CST-1368DR,4596,5091,11792,01.123,551
2022-09-11T05:18:16,42.805,6.029,CST-1368DR,4596,5091,11793,01.123,551
2022-09-11T05:21:17,42.805,6.029,CST-1368DR,4596,5094,11799,01.121,551
2022-09-11T05:24:19,42.805,6.029,CST-1368DR,4596,5090,11790,01.124,551
2022-09-11T05:27:20,42.805,6.029,CST-1368DR,4596,5091,11793,01.123,551
2022-09-11T05:30:22,42.805,6.029,CST-1368DR,4596,5092,11795,01.122,551
2022-09-11T05:33:24,42.805,6.029,CST-1368DR,4596,5092,11795,01.122,551
2022-09-11T05:36:25,42.805,6.029,CST-1368DR,4596,5088,11785,01.126,551
2022-09-11T05:39:27,42.805,6.029,CST-1368DR,4596,5089,11789,01.125,551
2022-09-11T05:42:28,42.805,6.029,CST-1368DR,4596,5089,11788,01.125,551
2022-09-11T05:45:30,42.805,6.029,CST-1368DR,4596,5090,11792,01.123,551
2022-09-11T05:48:32,42.805,6.029,CST-1368DR,4596,5090,11790,01.124,551
2022-09-11T05:51:33,42.805,6.029,CST-1368DR,4596,5090,11791,01.124,551
2022-09-11T05:54:35,42.805,6.029,CST-1368DR,4596,5091,11794,01.123,551
2022-09-11T05:57:36,42.805,6.029,CST-1368DR,4596,5091,11792,01.123,551
2022-09-11T06:00:38,42.805,6.029,CST-1368DR,4596,5090,11790,01.124,551
2022-09-11T06:03:39,42.805,6.029,CST-1368DR,4596,5090,11790,01.124,551
2022-09-11T06:06:41,42.805,6.029,CST-1368DR,4596,5090,11792,01.123,551
2022-09-11T06:09:43,42.805,6.029,CST-1368DR,4596,5093,11797,01.122,551
2022-09-11T06:12:44,42.805,6.029,CST-1368DR,4596,5089,11788,01.125,551
2022-09-11T06:15:46,42.805,6.029,CST-1368DR,4596,5088,11787,01.125,551
2022-09-11T06:18:47,42.805,6.029,CST-1368DR,4596,5089,11789,01.125,551
2022-09-11T06:21:49,42.805,6.029,CST-1368DR,4596,5089,11788,01.125,551
2022-09-11T06:24:50,42.805,6.029,CST-1368DR,4596,5088,11787,01.125,551
2022-09-11T06:27:52,42.805,6.029,CST-1368DR,4596,5093,11797,01.122,551
2022-09-11T06:30:54,42.805,6.029,CST-1368DR,4596,5090,11791,01.124,551
2022-09-11T06:33:55,42.805,6.029,CST-1368DR,4596,5091,11793,01.123,551
2022-09-11T06:36:57,42.805,6.029,CST-1368DR,4596,5092,11795,01.122,551
2022-09-11T06:39:58,42.805,6.029,CST-1368DR,4596,5093,11798,01.121,551
2022-09-11T06:43:00,42.805,6.029,CST-1368DR,4596,5090,11792,01.123,551
2022-09-11T06:46:02,42.805,6.029,CST-1368DR,4596,5092,11795,01.122,551
2022-09-11T06:49:03,42.805,6.029,CST-1368DR,4596,5088,11785,01.126,551
2022-09-11T06:52:05,42.805,6.029,CST-1368DR,4596,5090,11792,01.123,551
2022-09-11T06:55:06,42.805,6.029,CST-1368DR,4596,5091,11792,01.123,551
2022-09-11T06:58:08,42.805,6.029,CST-1368DR,4596,5094,11800,01.121,551
2022-09-11T07:01:09,42.805,6.029,CST-1368DR,4596,5095,11802,01.120,551
2022-09-11T07:04:11,42.805,6.029,CST-1368DR,4596,5089,11788,01.125,551
2022-09-11T07:07:13,42.805,6.029,CST-1368DR,4596,5089,11789,01.125,551
2022-09-11T07:10:14,42.805,6.029,CST-1368DR,4596,5090,11791,01.124,551
2022-09-11T07:13:16,42.805,6.029,CST-1368DR,4596,5091,11792,01.123,551
2022-09-11T07:16:17,42.805,6.029,CST-1368DR,4596,5092,11795,01.122,551
2022-09-11T07:19:19,42.805,6.029,CST-1368DR,4596,5094,11800,01.121,551
2022-09-11T07:22:21,42.805,6.029,CST-1368DR,4596,5090,11791,01.124,551
2022-09-11T07:25:22,42.805,6.029,CST-1368DR,4596,5092,11795,01.122,551
2022-09-11T07:28:24,42.805,6.029,CST-1368DR,4596,5089,11788,01.125,551
2022-09-11T07:31:25,42.805,6.029,CST-1368DR,4596,5091,11794,01.123,551
2022-09-11T07:34:27,42.805,6.029,CST-1368DR,4596,5091,11793,01.123,551
2022-09-11T07:37:28,42.805,6.029,CST-1368DR,4596,5090,11790,01.124,551
2022-09-11T07:40:30,42.805,6.029,CST-1368DR,4596,5092,11795,01.122,551
2022-09-11T07:43:32,42.805,6.029,CST-1368DR,4596,5089,11788,01.125,551
2022-09-11T07:46:33,42.805,6.029,CST-1368DR,4596,5089,11789,01.125,551
2022-09-11T07:49:35,42.805,6.029,CST-1368DR,4596,5087,11784,01.126,551
2022-09-11T07:52:36,42.805,6.029,CST-1368DR,4596,5089,11788,01.125,551
2022-09-11T07:55:38,42.805,6.029,CST-1368DR,4596,5090,11791,01.124,551
2022-09-11T07:58:39,42.805,6.029,CST-1368DR,4596,5090,11790,01.124,551
2022-09-11T08:01:41,42.805,6.029,CST-1368DR,4596,5090,11791,01.124,551
2022-09-11T08:04:43,42.805,6.029,CST-1368DR,4596,5089,11788,01.125,551
2022-09-11T08:07:44,42.805,6.029,CST-1368DR,4596,5091,11793,01.123,551
2022-09-11T08:10:46,42.805,6.029,CST-1368DR,4596,5092,11795,01.122,551
2022-09-11T08:13:47,42.805,6.029,CST-1368DR,4596,5093,11799,01.121,551
2022-09-11T08:16:49,42.805,6.029,CST-1368DR,4596,5092,11795,01.122,551
2022-09-11T08:19:51,42.805,6.029,CST-1368DR,4596,5091,11792,01.123,551
2022-09-11T08:22:52,42.805,6.029,CST-1368DR,4596,5096,11804,01.119,551
2022-09-11T08:25:54,42.805,6.029,CST-1368DR,4596,5094,11799,01.121,551
2022-09-11T08:28:55,42.805,6.029,CST-1368DR,4596,5091,11793,01.123,551
2022-09-11T08:31:57,42.805,6.029,CST-1368DR,4595,5093,11801,01.120,551
2022-09-11T08:34:58,42.805,6.029,CST-1368DR,4596,5093,11798,01.121,551
2022-09-11T08:38:00,42.805,6.029,CST-1368DR,4596,5093,11799,01.121,551
2022-09-11T08:41:02,42.805,6.029,CST-1368DR,4596,5091,11793,01.123,551
2022-09-11T08:44:03,42.805,6.029,CST-1368DR,4596,5097,11807,01.118,551
2022-09-11T08:47:05,42.805,6.029,CST-1368DR,4596,5093,11797,01.122,551
2022-09-11T08:50:06,42.805,6.029,CST-1368DR,4596,5095,11802,01.120,551
2022-09-11T08:53:08,42.805,6.029,CST-1368DR,4596,5092,11795,01.122,551
2022-09-11T08:56:09,42.805,6.029,CST-1368DR,4596,5090,11790,01.124,551
2022-09-11T08:59:11,42.805,6.029,CST-1368DR,4595,5090,11794,01.123,551
2022-09-11T09:02:13,42.805,6.029,CST-1368DR,4595,5090,11793,01.123,551
2022-09-11T09:05:14,42.805,6.029,CST-1368DR,4596,5088,11786,01.126,551
2022-09-11T09:08:16,42.805,6.029,CST-1368DR,4596,5090,11790,01.124,551
2022-09-11T09:11:17,42.805,6.029,CST-1368DR,4595,5088,11789,01.125,551
2022-09-11T09:14:19,42.805,6.029,CST-1368DR,4596,5088,11787,01.125,551
2022-09-11T09:17:21,42.805,6.029,CST-1368DR,4595,5088,11788,01.125,551
2022-09-11T09:20:22,42.805,6.029,CST-1368DR,4595,5089,11792,01.123,551
2022-09-11T09:23:24,42.805,6.029,CST-1368DR,4595,5089,11791,01.124,551
2022-09-11T09:26:25,42.805,6.029,CST-1368DR,4595,5088,11790,01.124,551
2022-09-11T09:29:27,42.805,6.029,CST-1368DR,4595,5087,11787,01.125,551
2022-09-11T09:32:28,42.805,6.029,CST-1368DR,4595,5088,11789,01.125,551
2022-09-11T09:35:30,42.805,6.029,CST-1368DR,4595,5086,11785,01.126,551
2022-09-11T09:38:32,42.805,6.029,CST-1368DR,4595,5086,11784,01.126,551
2022-09-11T09:41:33,42.805,6.029,CST-1368DR,4595,5090,11794,01.123,551
2022-09-11T09:44:35,42.805,6.029,CST-1368DR,4595,5090,11793,01.123,551
2022-09-11T09:47:36,42.805,6.029,CST-1368DR,4595,5093,11800,01.121,551
2022-09-11T09:50:38,42.805,6.029,CST-1368DR,4595,5090,11792,01.123,551
2022-09-11T09:53:39,42.805,6.029,CST-1368DR,4595,5091,11795,01.122,551
2022-09-11T09:56:41,42.805,6.029,CST-1368DR,4595,5089,11792,01.123,551
2022-09-11T09:59:43,42.805,6.029,CST-1368DR,4595,5092,11798,01.121,551
2022-09-11T10:02:44,42.805,6.029,CST-1368DR,4595,5089,11792,01.123,551
2022-09-11T10:05:46,42.805,6.029,CST-1368DR,4595,5089,11791,01.124,551
2022-09-11T10:08:47,42.805,6.029,CST-1368DR,4595,5094,11802,01.120,551
2022-09-11T10:11:49,42.805,6.029,CST-1368DR,4595,5088,11789,01.125,551
2022-09-11T10:14:51,42.805,6.029,CST-1368DR,4595,5089,11791,01.124,551
2022-09-11T10:17:52,42.805,6.029,CST-1368DR,4595,5088,11788,01.125,551
2022-09-11T10:20:54,42.805,6.029,CST-1368DR,4595,5090,11793,01.123,551
2022-09-11T10:23:55,42.805,6.029,CST-1368DR,4595,5089,11790,01.124,551
2022-09-11T10:26:57,42.805,6.029,CST-1368DR,4595,5091,11795,01.122,551
2022-09-11T10:29:58,42.805,6.029,CST-1368DR,4595,5091,11795,01.122,551
2022-09-11T10:33:00,42.805,6.029,CST-1368DR,4595,5091,11795,01.122,551
2022-09-11T10:36:02,42.805,6.029,CST-1368DR,4595,5092,11797,01.122,551
2022-09-11T10:39:03,42.805,6.029,CST-1368DR,4595,5090,11793,01.123,551
2022-09-11T10:42:05,42.805,6.029,CST-1368DR,4595,5090,11794,01.123,551
2022-09-11T10:45:06,42.805,6.029,CST-1368DR,4595,5091,11796,01.122,551
2022-09-11T10:48:08,42.805,6.029,CST-1368DR,4595,5091,11797,01.122,551
2022-09-11T10:51:09,42.805,6.029,CST-1368DR,4595,5090,11792,01.123,551
2022-09-11T10:54:11,42.805,6.029,CST-1368DR,4595,5088,11788,01.125,551
2022-09-11T10:57:13,42.805,6.029,CST-1368DR,4595,5090,11794,01.123,551
2022-09-11T11:00:14,42.805,6.029,CST-1368DR,4595,5093,11799,01.121,551
2022-09-11T11:03:16,42.805,6.029,CST-1368DR,4595,5092,11798,01.121,551
2022-09-11T11:06:17,42.805,6.029,CST-1368DR,4595,5091,11796,01.122,551
2022-09-11T11:09:19,42.805,6.029,CST-1368DR,4595,5091,11797,01.122,551
2022-09-11T11:12:21,42.805,6.029,CST-1368DR,4595,5090,11794,01.123,551
2022-09-11T11:15:22,42.805,6.029,CST-1368DR,4595,5090,11794,01.123,551
2022-09-11T11:18:24,42.805,6.029,CST-1368DR,4595,5091,11795,01.122,551
2022-09-11T11:21:25,42.805,6.029,CST-1368DR,4595,5090,11794,01.123,551
2022-09-11T11:24:27,42.805,6.029,CST-1368DR,4595,5092,11798,01.121,551
2022-09-11T11:27:28,42.805,6.029,CST-1368DR,4595,5090,11794,01.123,551
2022-09-11T11:30:30,42.805,6.029,CST-1368DR,4595,5090,11792,01.123,551
2022-09-11T11:33:32,42.805,6.029,CST-1368DR,4595,5090,11792,01.123,551
2022-09-11T11:36:33,42.805,6.029,CST-1368DR,4595,5091,11795,01.122,551
2022-09-11T11:39:35,42.805,6.029,CST-1368DR,4595,5088,11788,01.125,551
2022-09-11T11:42:36,42.805,6.029,CST-1368DR,4595,5088,11788,01.125,551
2022-09-11T11:45:38,42.805,6.029,CST-1368DR,4595,5087,11787,01.125,551
2022-09-11T11:48:40,42.805,6.029,CST-1368DR,4595,5088,11790,01.124,551
2022-09-11T11:51:41,42.805,6.029,CST-1368DR,4595,5089,11791,01.124,551
2022-09-11T11:54:43,42.805,6.029,CST-1368DR,4595,5087,11787,01.125,551
2022-09-11T11:57:44,42.805,6.029,CST-1368DR,4595,5088,11788,01.125,551
2022-09-11T12:00:46,42.805,6.029,CST-1368DR,4595,5089,11790,01.124,551
2022-09-11T12:03:47,42.805,6.029,CST-1368DR,4595,5087,11787,01.125,551
2022-09-11T12:06:49,42.805,6.029,CST-1368DR,4595,5087,11787,01.125,551
2022-09-11T12:09:51,42.805,6.029,CST-1368DR,4595,5087,11786,01.126,551
2022-09-11T12:12:52,42.805,6.029,CST-1368DR,4595,5087,11787,01.125,551
2022-09-11T12:15:54,42.805,6.029,CST-1368DR,4595,5088,11789,01.125,551
2022-09-11T12:18:55,42.805,6.029,CST-1368DR,4595,5087,11787,01.125,551
2022-09-11T12:21:57,42.805,6.029,CST-1368DR,4595,5088,11789,01.125,551
2022-09-11T12:24:58,42.805,6.029,CST-1368DR,4595,5088,11788,01.125,551
2022-09-11T12:28:00,42.805,6.029,CST-1368DR,4595,5084,11780,01.128,551
2022-09-11T12:31:02,42.805,6.029,CST-1368DR,4595,5087,11787,01.125,551
2022-09-11T12:34:03,42.805,6.029,CST-1368DR,4595,5090,11792,01.123,551
2022-09-11T12:37:05,42.805,6.029,CST-1368DR,4595,5093,11801,01.120,551
2022-09-11T12:40:06,42.805,6.029,CST-1368DR,4595,5088,11789,01.125,551
2022-09-11T12:43:08,42.805,6.029,CST-1368DR,4595,5088,11788,01.125,551
2022-09-11T12:46:10,42.805,6.029,CST-1368DR,4595,5088,11788,01.125,551
2022-09-11T12:49:11,42.805,6.029,CST-1368DR,4595,5089,11791,01.124,551
2022-09-11T12:52:13,42.805,6.029,CST-1368DR,4595,5091,11795,01.122,551
2022-09-11T12:55:14,42.805,6.029,CST-1368DR,4595,5091,11796,01.122,551
2022-09-11T12:58:16,42.805,6.029,CST-1368DR,4595,5090,11794,01.123,551
2022-09-11T13:01:17,42.805,6.029,CST-1368DR,4595,5091,11797,01.122,551
2022-09-11T13:04:19,42.805,6.029,CST-1368DR,4595,5093,11800,01.121,551
2022-09-11T13:07:21,42.805,6.029,CST-1368DR,4595,5091,11795,01.122,551
2022-09-11T13:10:22,42.805,6.029,CST-1368DR,4595,5091,11795,01.122,551
2022-09-11T13:13:24,42.805,6.029,CST-1368DR,4595,5091,11795,01.122,551
2022-09-11T13:16:25,42.805,6.029,CST-1368DR,4595,5087,11786,01.126,551
2022-09-11T13:19:27,42.805,6.029,CST-1368DR,4595,5090,11794,01.123,551
2022-09-11T13:22:28,42.805,6.029,CST-1368DR,4595,5091,11795,01.122,551
2022-09-11T13:25:30,42.805,6.029,CST-1368DR,4595,5091,11795,01.122,551
2022-09-11T13:28:32,42.805,6.029,CST-1368DR,4595,5090,11792,01.123,551
2022-09-11T13:31:33,42.805,6.029,CST-1368DR,4595,5088,11788,01.125,551
2022-09-11T13:34:35,42.805,6.029,CST-1368DR,4595,5087,11787,01.125,551
2022-09-11T13:37:36,42.805,6.029,CST-1368DR,4595,5091,11797,01.122,551
2022-09-11T13:40:38,42.805,6.029,CST-1368DR,4595,5091,11795,01.122,551
2022-09-11T13:43:40,42.805,6.029,CST-1368DR,4595,5090,11794,01.123,551
2022-09-11T13:46:41,42.805,6.029,CST-1368DR,4595,5088,11789,01.125,551
2022-09-11T13:49:43,42.805,6.029,CST-1368DR,4595,5090,11792,01.123,551
2022-09-11T13:52:44,42.805,6.029,CST-1368DR,4595,5090,11794,01.123,551
2022-09-11T13:55:46,42.805,6.029,CST-1368DR,4595,5089,11791,01.124,551
2022-09-11T13:58:47,42.805,6.029,CST-1368DR,4594,5090,11796,01.122,551
2022-09-11T14:01:49,42.805,6.029,CST-1368DR,4594,5089,11794,01.123,551
2022-09-11T14:04:51,42.805,6.029,CST-1368DR,4594,5089,11793,01.123,551
2022-09-11T14:07:52,42.805,6.029,CST-1368DR,4594,5089,11794,01.123,551
2022-09-11T14:10:54,42.805,6.029,CST-1368DR,4594,5090,11796,01.122,551
2022-09-11T14:13:55,42.805,6.029,CST-1368DR,4594,5096,11809,01.118,551
2022-09-11T14:16:57,42.805,6.029,CST-1368DR,4594,5091,11799,01.121,551
2022-09-11T14:19:58,42.805,6.029,CST-1368DR,4594,5090,11797,01.122,551
2022-09-11T14:23:00,42.805,6.029,CST-1368DR,4594,5090,11797,01.122,551
2022-09-11T14:26:02,42.805,6.029,CST-1368DR,4594,5090,11796,01.122,551
2022-09-11T14:29:03,42.805,6.029,CST-1368DR,4594,5090,11797,01.122,551
2022-09-11T14:32:05,42.805,6.029,CST-1368DR,4594,5091,11797,01.122,551
2022-09-11T14:35:06,42.805,6.029,CST-1368DR,4594,5090,11795,01.122,551
2022-09-11T14:38:08,42.805,6.029,CST-1368DR,4594,5091,11799,01.121,551
2022-09-11T14:41:10,42.805,6.029,CST-1368DR,4594,5091,11798,01.121,551
2022-09-11T14:44:11,42.805,6.029,CST-1368DR,4594,5090,11797,01.122,551
2022-09-11T14:47:13,42.805,6.029,CST-1368DR,4594,5088,11791,01.124,551
2022-09-11T14:50:14,42.805,6.029,CST-1368DR,4594,5089,11794,01.123,551
2022-09-11T14:53:16,42.805,6.029,CST-1368DR,4594,5090,11797,01.122,551
2022-09-11T14:56:17,42.805,6.029,CST-1368DR,4594,5090,11797,01.122,551
2022-09-11T14:59:19,42.805,6.029,CST-1368DR,4594,5089,11794,01.123,551
2022-09-11T15:02:21,42.805,6.029,CST-1368DR,4594,5089,11794,01.123,551
2022-09-11T15:05:22,42.805,6.029,CST-1368DR,4594,5091,11797,01.122,551
2022-09-11T15:08:24,42.805,6.029,CST-1368DR,4594,5089,11794,01.123,551
2022-09-11T15:11:25,42.805,6.029,CST-1368DR,4594,5088,11791,01.124,551
2022-09-11T15:14:27,42.805,6.029,CST-1368DR,4594,5088,11791,01.124,551
2022-09-11T15:17:28,42.805,6.029,CST-1368DR,4594,5089,11794,01.123,551
2022-09-11T15:20:30,42.805,6.029,CST-1368DR,4594,5091,11799,01.121,551
2022-09-11T15:23:32,42.805,6.029,CST-1368DR,4594,5086,11787,01.125,551
2022-09-11T15:26:33,42.805,6.029,CST-1368DR,4594,5087,11790,01.124,551
2022-09-11T15:29:35,42.805,6.029,CST-1368DR,4594,5088,11791,01.124,551
2022-09-11T15:32:36,42.805,6.029,CST-1368DR,4594,5088,11791,01.124,551
2022-09-11T15:35:38,42.805,6.029,CST-1368DR,4594,5088,11791,01.124,551
2022-09-11T15:38:40,42.805,6.029,CST-1368DR,4594,5083,11779,01.128,551
2022-09-11T15:41:41,42.805,6.029,CST-1368DR,4594,5087,11790,01.124,551
2022-09-11T15:44:43,42.805,6.029,CST-1368DR,4594,5088,11791,01.124,551
2022-09-11T15:47:44,42.805,6.029,CST-1368DR,4594,5089,11794,01.123,550
2022-09-11T15:50:46,42.805,6.029,CST-1368DR,4594,5088,11791,01.124,551
2022-09-11T15:53:47,42.805,6.029,CST-1368DR,4594,5087,11789,01.125,551
2022-09-11T15:56:49,42.805,6.029,CST-1368DR,4594,5088,11791,01.124,551
2022-09-11T15:59:51,42.805,6.029,CST-1368DR,4594,5087,11790,01.124,551
2022-09-11T16:02:52,42.805,6.029,CST-1368DR,4594,5090,11795,01.122,551
2022-09-11T16:05:54,42.805,6.029,CST-1368DR,4594,5091,11798,01.121,551
2022-09-11T16:08:55,42.805,6.029,CST-1368DR,4594,5088,11790,01.124,551
2022-09-11T16:11:57,42.805,6.029,CST-1368DR,4594,5084,11783,01.127,551
2022-09-11T16:14:58,42.805,6.029,CST-1368DR,4594,5088,11791,01.124,551
2022-09-11T16:18:00,42.805,6.029,CST-1368DR,4594,5088,11791,01.124,551
2022-09-11T16:21:02,42.805,6.029,CST-1368DR,4594,5088,11790,01.124,551
2022-09-11T16:24:03,42.805,6.029,CST-1368DR,4594,5089,11793,01.123,551
2022-09-11T16:27:05,42.805,6.029,CST-1368DR,4594,5088,11790,01.124,551
2022-09-11T16:30:06,42.805,6.029,CST-1368DR,4594,5089,11794,01.123,551
2022-09-11T16:33:08,42.805,6.029,CST-1368DR,4594,5088,11792,01.123,551
2022-09-11T16:36:10,42.805,6.029,CST-1368DR,4594,5088,11791,01.124,551
2022-09-11T16:39:11,42.805,6.029,CST-1368DR,4594,5087,11790,01.124,551